This is the latest recevied weather packets stored in our database for station/object N2XP-3. If no packets are shown the sender has not sent any weather packets the latest 10 day(s).
| Time | Temp. | Humidity | Pressure | Rain* | Wind** | Luminosity | Snow |
|---|---|---|---|---|---|---|---|
| 1777912203 | 22.22° C | 38% | 1009.5 hPa | 0 mm | 3.13 m/s, 235° | - | - |
| 1777912169 | 22.22° C | 38% | 1009.5 hPa | 0 mm | 3.13 m/s, 235° | - | - |
| 1777911922 | 21.67° C | 37% | 1009.4 hPa | 0 mm | 1.79 m/s, 270° | - | - |
| 1777911870 | 21.67° C | 37% | 1009.4 hPa | 0 mm | 1.79 m/s, 270° | - | - |
| 1777911264 | 21.67° C | 38% | 1009.6 hPa | 0 mm | 2.68 m/s, 194° | - | - |
| 1777910359 | 21.67° C | 38% | 1009.8 hPa | 0 mm | 3.13 m/s, 203° | - | - |
| 1777909823 | 21.11° C | 37% | 1009.7 hPa | 0 mm | 1.34 m/s, 314° | - | - |
| 1777909750 | 21.11° C | 37% | 1009.7 hPa | 0 mm | 1.34 m/s, 314° | - | - |
| 1777909490 | 21.11° C | 37% | 1010 hPa | 0 mm | 2.24 m/s, 283° | - | - |
| 1777909451 | 21.11° C | 37% | 1010 hPa | 0 mm | 2.24 m/s, 283° | - | - |
| 1777908847 | 21.11° C | 38% | 1010.2 hPa | 0 mm | 1.34 m/s, 276° | - | - |
| 1777908548 | 21.11° C | 38% | 1010.2 hPa | 0 mm | 0.89 m/s, 315° | - | - |
| 1777908305 | 21.11° C | 36% | 1010.3 hPa | 0 mm | 2.24 m/s, 184° | - | - |
| 1777908247 | 21.11° C | 36% | 1010.3 hPa | 0 mm | 2.24 m/s, 184° | - | - |
| 1777907943 | 21.11° C | 37% | 1010.3 hPa | 0 mm | 2.68 m/s, 322° | - | - |
| 1777907353 | 21.67° C | 34% | 1010.3 hPa | 0 mm | 2.68 m/s, 217° | - | - |
| 1777907255 | 21.67° C | 34% | 1010.3 hPa | 0 mm | 2.68 m/s, 217° | - | - |
| 1777907041 | 21.67° C | 34% | 1010.3 hPa | 0 mm | 2.68 m/s, 217° | - | - |
| 1777906742 | 21.67° C | 35% | 1010.4 hPa | 0 mm | 1.34 m/s, 312° | - | - |
| 1777906442 | 21.67° C | 35% | 1010.3 hPa | 0 mm | 3.13 m/s, 243° | - | - |
| 1777906198 | 22.22° C | 34% | 1010.4 hPa | 0 mm | 2.68 m/s, 281° | - | - |
| 1777906137 | 22.22° C | 34% | 1010.4 hPa | 0 mm | 2.68 m/s, 281° | - | - |
| 1777905837 | 23.33° C | 33% | 1010.5 hPa | 0 mm | 4.02 m/s, 235° | - | - |
| 1777905535 | 23.89° C | 33% | 1010.5 hPa | 0 mm | 1.34 m/s, 195° | - | - |
| 1777905232 | 24.44° C | 31% | 1010.4 hPa | 0 mm | 1.34 m/s, 24° | - | - |
* Rain latest hour (hover to see other rain measurements)
** Current wind speed in m/s (hover to see current wind gust speed)